Location: Owatonna
(44.0840°N, 93.2260°W)
Time: 03:43:10
(UTC-06:00)

Tiangong 1 - Visible Passes

Search period start: 20 December 2014 00:00
Search period end: 30 December 2014 00:00
Orbit: 363 x 385 km, 42.8° (Epoch: 19 December)

Date Brightness Start Highest point End Pass type
(mag) Time Alt. Az. Time Alt. Az. Time Alt. Az.
20 Dec 1.1 18:03:02 10° W 18:06:07 70° S 18:07:16 34° ESE visible
21 Dec 1.7 18:36:24 10° W 18:39:13 51° SSW 18:39:13 51° SSW visible
22 Dec 1.3 17:33:14 10° W 17:36:18 65° S 17:39:09 12° ESE visible
22 Dec 3.8 19:09:50 10° W 19:11:09 19° WSW 19:11:09 19° WSW visible
23 Dec 2.1 18:06:26 10° W 18:09:22 41° SSW 18:11:07 20° SE visible
24 Dec 3.3 18:39:51 10° WSW 18:42:12 20° SSW 18:43:09 17° S visible
25 Dec 2.8 17:36:07 10° W 17:38:53 31° SSW 17:41:40 10° SE visible
26 Dec 4.0 18:09:43 10° WSW 18:11:25 14° SSW 18:13:08 10° S visible
